星链-1830 (STARLINK-1830 )

导读 | 豆包AI

STARLINK-1830是美国太空探索技术公司(SpaceX)于2020年10月18日发射的星链(Starlink)卫星。星链项目旨在构建全球卫星互联网通信系统,通过大规模低轨卫星星座,为偏远地区及地面网络覆盖不足区域提供高速宽带服务。作为星链早期部署阶段的组网卫星之一,STARLINK-1830参与推进全球覆盖网络建设,推动卫星互联网商业化落地进程。

基本信息
目录编号:
46727
目录名称:
STARLINK-1830
国际标识:
2020-073BK
轨道中心:
EARTH
卫星名称:
星链-1830
卫星全名:
星链-1830 (STARLINK-1830 )
卫星状态:
在轨 (已飞行1994 天)
发射日期:
2020-10-18 UTC
国别 :
美国 (US)
星等 :
--
轨道信息
数据来源 国际轨道数据 AOE轨道数据
星历时间 2026-04-04T04:00:02+0800
7小时前
查看轨道信息
2026-03-31T20:00:00+0800
3天前
查看轨道信息
半长轴 6763.761km 6766.628km
偏心率 0.0005094 0.0004908
轨道倾角 53.042° 53.041°
近地点辐角 100.009° 85.420°
升交点赤经 61.299° 77.545°
平近点角 244.904° 245.996°
近地点 382.178km 385.169km
远地点 389.07km 391.813km
周期 92.266分钟 92.325分钟
每日圈数 15.607036 15.597118
详细信息
固有亮度:
5
最大亮度:
2.5
卫星平台:
Starlink V1.0
覆盖范围:
全球
运营商:
太空探索技术公司
运营商所在国:
美国
制造商(研发单位):
太空探索技术公司
制造商所在国:
美国
使用方式:
暂无
卫星简介
星链(Starlink)计划是由太空探索技术公司(SpaceX)提出的一个巨型低轨卫星互联网星座项目,计划在2019年至2024年间在太空搭建由约1.2万颗卫星组成的“星链”网络,其中1584颗将部署在地球上空550千米处的近地轨道,并从2020年开始工作。该卫星仍在工作。
2D轨道图
3D轨道图
轨道高度分析图
轨道倾角分析图
轨道综合分析图
查看轨道综合分析图